[[{"header":{"parameterUnit":"m.s-1","parameterCategory":2,"la1":30.2992,"la2":30.254,"lo1":-89.0895,"lo2":-89.0443,"dy":0.0025,"dx":0.0025,"nx":19,"ny":19,"refTime":"2026-04-07T03:00:00:Z","depth":"0","parameterNumber":2,"parameterNumberName":"U-component_of_CURRENTS"},"data":[0,0,0,-0.0874,-0.0876,-0.0923,-0.0923,-0.0846,-0.0845,0,0,0,0,0,0,0,0,0,0,0,-0.0827,-0.0827,-0.0874,-0.0877,-0.0923,-0.0923,-0.0846,-0.0845,0,0,0,0,0,0,0,0,0,0,0,-0.0826,-0.0827,-0.0828,-0.0877,-0.0924,-0.0923,-0.0846,-0.0834,0,0,0,0,0,0,0,0,0,0,-0.0801,-0.0798,-0.0827,-0.0828,-0.0878,-0.0924,-0.0923,-0.0835,-0.0835,-0.0799,0,-0.082,0,-0.0862,-0.0841,-0.0841,0,0,0,-0.0832,-0.0798,-0.082,-0.0828,-0.0879,-0.0924,-0.089,-0.0835,-0.0836,-0.0799,-0.082,-0.0819,-0.0861,-0.0841,-0.084,-0.0825,-0.0826,0,0,-0.083,-0.0819,-0.0821,-0.0821,-0.0906,-0.0889,-0.0892,-0.0837,-0.0834,-0.0819,-0.0818,-0.086,-0.084,-0.084,-0.0825,-0.0825,0,0,0,-0.0852,-0.0817,-0.0842,-0.0822,-0.086,-0.0891,-0.0895,-0.0835,-0.0848,-0.0818,-0.0859,-0.084,-0.0839,-0.0825,-0.0825,-0.0846,0,0,0,-0.0848,-0.0834,-0.0841,-0.0833,-0.0862,-0.0871,-0.0894,-0.085,-0.0847,-0.0859,-0.084,-0.0839,-0.0824,-0.0825,-0.0845,-0.0888,0,0,0,-0.0822,-0.0832,-0.0844,-0.0833,-0.0879,-0.0874,-0.0881,-0.085,-0.0874,-0.0841,-0.0838,-0.0824,-0.0825,-0.0843,-0.0885,-0.1047,0,0,0,-0.0798,-0.0834,-0.0843,-0.0885,-0.0879,-0.0909,-0.0882,-0.0884,-0.0859,-0.084,-0.0824,-0.0825,-0.0843,-0.0883,-0.1043,-0.138,-0.1427,0,0,-0.0833,-0.0837,-0.0861,-0.0873,-0.0918,-0.0898,-0.0914,-0.0872,-0.0857,-0.0824,-0.0825,-0.0845,-0.0885,-0.1046,-0.1421,-0.1468,0,0,0,-0.0865,-0.0885,-0.0896,-0.0928,-0.094,-0.0937,-0.0913,-0.0894,-0.0869,-0.0859,-0.0854,-0.088,-0.0981,-0.1175,-0.1211,-0.14,-0.0829,-0.0828,-0.0828,-0.0907,-0.0916,-0.0948,-0.0958,-0.0964,-0.0957,-0.0945,-0.0919,-0.0884,-0.0884,-0.0901,-0.1046,-0.1248,-0.128,-0.1468,-0.0889,-0.0889,-0.0889,-0.0889,-0.0972,-0.099,-0.0984,-0.1016,-0.0998,-0.0997,-0.0973,-0.0954,-0.1006,-0.0925,-0.1024,-0.1191,-0.1323,-0.1508,-0.0891,-0.089,-0.089,-0.089,-0.089,-0.1007,-0.1009,-0.1026,-0.1045,-0.105,-0.1031,-0.1129,-0.1088,-0.1071,-0.1124,-0.1448,-0.1452,-0.1622,-0.1219,-0.122,-0.1221,-0.1222,-0.1222,-0.1223,-0.1027,-0.104,-0.1063,-0.1069,-0.1101,-0.1158,-0.124,-0.1355,-0.154,-0.1547,-0.1551,-0.173,-0.1149,-0.1144,-0.1236,-0.1234,-0.1232,-0.1231,-0.123,-0.1046,-0.1037,-0.11,-0.1137,-0.1252,-0.1433,-0.1537,-0.1937,-0.2042,-0.2211,-0.2299,-0.1803,-0.1863,-0.1837,-0.1851,-0.2121,-0.2121,-0.2121,-0.2121,-0.1036,-0.1038,-0.1148,-0.1265,-0.1428,-0.158,-0.2092,-0.2435,-0.2725,-0.286,-0.2763,-0.2747,-0.2702,-0.2805,-0.2757,-0.2786,-0.3286,-0.3288,-0.3289,-0.102,-0.1073,-0.1162,-0.1303,-0.1521,-0.181,-0.2321,-0.2914,-0.3309,-0.3337,-0.2961,-0.2912,-0.2869,-0.2784,-0.2916,-0.2833,-0.2867,0,0]},{"header":{"parameterUnit":"m.s-1","parameterCategory":2,"la1":30.2992,"la2":30.254,"lo1":-89.0895,"lo2":-89.0443,"dy":0.0025,"dx":0.0025,"nx":19,"ny":19,"refTime":"2026-04-07T03:00:00:Z","depth":"0","parameterNumber":3,"parameterNumberName":"V-component_of_CURRENTS"},"data":[0,0,0,-0.0268,-0.0268,-0.0208,-0.0208,-0.0083,-0.0082,0,0,0,0,0,0,0,0,0,0,0,-0.0272,-0.0272,-0.0268,-0.0268,-0.0208,-0.0208,-0.0083,-0.0082,0,0,0,0,0,0,0,0,0,0,0,-0.0272,-0.0272,-0.0272,-0.0268,-0.0208,-0.0208,-0.0083,-0.0133,0,0,0,0,0,0,0,0,0,0,-0.0194,-0.0218,-0.0272,-0.0272,-0.0268,-0.0209,-0.0208,-0.0136,-0.013,-0.0105,0,-0.0104,0,-0.011,-0.0075,-0.0075,0,0,0,-0.0238,-0.0223,-0.0213,-0.0272,-0.0267,-0.0209,-0.0227,-0.0133,-0.0126,-0.0098,-0.0103,-0.0099,-0.0108,-0.0075,-0.0074,0.0033,0.0033,0,0,-0.0241,-0.0251,-0.0218,-0.0209,-0.0262,-0.0229,-0.0225,-0.0129,-0.0122,-0.0102,-0.0096,-0.0106,-0.0074,-0.0073,0.0032,0.0033,0,0,0,-0.0271,-0.0253,-0.0245,-0.0213,-0.0218,-0.0228,-0.0224,-0.0125,-0.0125,-0.0095,-0.0104,-0.0073,-0.0072,0.0032,0.0033,0.0034,0,0,0,-0.0271,-0.0273,-0.0247,-0.0251,-0.022,-0.018,-0.0222,-0.0131,-0.0121,-0.0105,-0.0073,-0.0071,0.0031,0.0032,0.0033,0.0027,0,0,0,-0.0273,-0.0273,-0.0271,-0.0252,-0.0242,-0.0182,-0.0174,-0.0128,-0.0128,-0.0075,-0.0071,0.0031,0.0032,0.0032,0.0026,0.0043,0,0,0,-0.0278,-0.0288,-0.0271,-0.0274,-0.0243,-0.0204,-0.0175,-0.0135,-0.0092,-0.0073,0.0032,0.0033,0.0032,0.0026,0.0042,0.0009,0.0011,0,0,-0.0297,-0.029,-0.0291,-0.0275,-0.0253,-0.0209,-0.0155,-0.0092,-0.0065,0.0007,0.001,0.0033,0.0026,0.0043,0.0067,0.0066,0,0,0,-0.0301,-0.0302,-0.029,-0.0272,-0.0235,-0.0168,-0.0117,-0.0077,-0.0003,-0.0042,0.0053,0.0049,0.0059,0.0039,0.0039,0.0314,0.0037,0.0037,0.0037,-0.034,-0.0316,-0.0302,-0.026,-0.0218,-0.0135,-0.0072,-0.0004,0.0011,0.0046,0.0065,0.0098,0.0077,0.0077,0.0362,0.0086,0.0086,0.0086,0.0086,-0.0371,-0.0364,-0.0304,-0.0284,-0.0199,-0.014,-0.0019,0.0014,0.0096,0.0095,0.0105,0.0059,0.0076,0.0381,0.0086,0.0086,0.0086,0.0086,0.0086,-0.0404,-0.0394,-0.0374,-0.0322,-0.0243,-0.0146,-0.0084,0.0015,0.0089,0.0116,0.0093,0.0092,0.0346,0.0115,0.0115,0.0115,0.0115,0.0115,0.0115,-0.045,-0.0425,-0.0429,-0.0359,-0.0333,-0.0262,-0.0124,-0.007,0.0037,0.0093,0.0093,0.0403,0.0107,0.009,0.0116,0.0116,0.0116,0.0116,0.0116,-0.049,-0.0488,-0.0511,-0.0502,-0.0461,-0.0514,-0.0332,-0.0216,-0.0091,-0.0053,0.0421,0.0091,0.0087,0.0087,0.0071,0.009,0.009,0.009,0.009,-0.0526,-0.0522,-0.061,-0.0652,-0.0661,-0.0644,-0.0724,-0.0477,0.0086,0.0413,0.0571,0.0605,0.0593,0.0623,0.0611,0.0608,0.0763,0.0765,0.0766,-0.0549,-0.0585,-0.0683,-0.0746,-0.0782,-0.0857,-0.1019,-0.0722,0.0296,0.0828,0.0974,0.0946,0.1029,0.0988,0.1056,0.1017,0.1015,0,0]}],[{"header":{"parameterUnit":"m.s-1","parameterCategory":2,"la1":30.2992,"la2":30.254,"lo1":-89.0895,"lo2":-89.0443,"dy":0.0025,"dx":0.0025,"nx":19,"ny":19,"refTime":"2026-04-07T03:00:00:Z","depth":"2","parameterNumber":2,"parameterNumberName":"U-component_of_CURRENTS"},"data":[0,0,0,-0.0821,-0.0823,-0.0872,-0.0871,-0.0794,-0.0794,0,0,0,0,0,0,0,0,0,0,0,-0.0773,-0.0773,-0.082,-0.0823,-0.0872,-0.0871,-0.0794,-0.0794,0,0,0,0,0,0,0,0,0,0,0,-0.0773,-0.0773,-0.0774,-0.0824,-0.0872,-0.0871,-0.0795,-0.0782,0,0,0,0,0,0,0,0,0,0,-0.0747,-0.0744,-0.0773,-0.0774,-0.0824,-0.0872,-0.0871,-0.0782,-0.0783,-0.0746,0,-0.0767,0,-0.081,-0.0789,-0.0789,0,0,0,-0.0779,-0.0744,-0.0767,-0.0774,-0.0825,-0.0872,-0.0837,-0.0783,-0.0783,-0.0746,-0.0767,-0.0766,-0.0809,-0.0789,-0.0789,-0.0773,-0.0773,0,0,-0.0776,-0.0766,-0.0767,-0.0768,-0.0853,-0.0836,-0.084,-0.0784,-0.0782,-0.0767,-0.0766,-0.0807,-0.0789,-0.0788,-0.0772,-0.0773,0,0,0,-0.0798,-0.0764,-0.0789,-0.0769,-0.0807,-0.0839,-0.0842,-0.0784,-0.0796,-0.0765,-0.0806,-0.0788,-0.0788,-0.0772,-0.0773,-0.0794,0,0,0,-0.0795,-0.0781,-0.0788,-0.078,-0.0809,-0.0819,-0.0843,-0.0798,-0.0795,-0.0807,-0.0788,-0.0787,-0.0772,-0.0772,-0.0792,-0.0836,0,0,0,-0.0768,-0.0779,-0.0791,-0.078,-0.0827,-0.0822,-0.0829,-0.0798,-0.0822,-0.0789,-0.0787,-0.0772,-0.0772,-0.0791,-0.0833,-0.0993,0,0,0,-0.0744,-0.0781,-0.079,-0.0833,-0.0827,-0.0857,-0.083,-0.0833,-0.0808,-0.0788,-0.0772,-0.0773,-0.0791,-0.0831,-0.0989,-0.1283,-0.1326,0,0,-0.078,-0.0784,-0.0808,-0.082,-0.0865,-0.0846,-0.0862,-0.082,-0.0805,-0.0771,-0.0772,-0.0793,-0.0833,-0.0992,-0.1324,-0.1367,0,0,0,-0.0812,-0.0832,-0.0843,-0.0875,-0.0888,-0.0884,-0.0861,-0.0842,-0.0817,-0.0807,-0.0802,-0.0827,-0.0928,-0.1096,-0.1129,-0.0776,-0.0776,-0.0776,-0.0776,-0.0856,-0.0864,-0.0896,-0.0905,-0.0911,-0.0905,-0.0893,-0.0866,-0.0832,-0.0832,-0.0849,-0.0992,-0.1167,-0.1196,-0.0836,-0.0836,-0.0836,-0.0837,-0.0837,-0.0921,-0.0938,-0.0932,-0.0964,-0.0946,-0.0945,-0.0919,-0.0901,-0.0952,-0.0872,-0.097,-0.1113,-0.1236,-0.0838,-0.0838,-0.0838,-0.0838,-0.0838,-0.0837,-0.0957,-0.0959,-0.0976,-0.0994,-0.0998,-0.0979,-0.1075,-0.1035,-0.1017,-0.107,-0.1365,-0.1368,-0.1068,-0.1165,-0.1166,-0.1167,-0.1167,-0.1168,-0.1168,-0.0977,-0.099,-0.1013,-0.1018,-0.1049,-0.1106,-0.1187,-0.13,-0.1466,-0.146,-0.1463,-0.1106,-0.1095,-0.109,-0.1182,-0.118,-0.1178,-0.1177,-0.1176,-0.0996,-0.0987,-0.105,-0.1086,-0.1199,-0.1306,-0.1462,-0.1843,-0.1957,-0.2112,-0.1713,-0.1695,-0.1751,-0.1726,-0.1739,-0.1993,-0.1993,-0.1993,-0.1994,-0.0987,-0.0988,-0.1097,-0.1213,-0.1373,-0.1429,-0.1795,-0.1966,-0.2093,-0.2011,-0.2007,-0.1922,-0.1895,-0.1948,-0.1917,-0.1928,-0.2232,-0.2231,-0.223,-0.097,-0.1023,-0.1111,-0.1251,-0.1464,-0.1584,-0.1787,-0.1896,-0.2032,-0.2209,-0.1736,-0.207,-0.1937,-0.1896,-0.1965,-0.1921,-0.1934,0,0]},{"header":{"parameterUnit":"m.s-1","parameterCategory":2,"la1":30.2992,"la2":30.254,"lo1":-89.0895,"lo2":-89.0443,"dy":0.0025,"dx":0.0025,"nx":19,"ny":19,"refTime":"2026-04-07T03:00:00:Z","depth":"2","parameterNumber":3,"parameterNumberName":"V-component_of_CURRENTS"},"data":[0,0,0,-0.0258,-0.0257,-0.0198,-0.0197,-0.0072,-0.0071,0,0,0,0,0,0,0,0,0,0,0,-0.0262,-0.0262,-0.0258,-0.0257,-0.0198,-0.0197,-0.0072,-0.0071,0,0,0,0,0,0,0,0,0,0,0,-0.0262,-0.0262,-0.0262,-0.0257,-0.0198,-0.0197,-0.0072,-0.0122,0,0,0,0,0,0,0,0,0,0,-0.0183,-0.0208,-0.0262,-0.0262,-0.0257,-0.0198,-0.0197,-0.0125,-0.0119,-0.0094,0,-0.0094,0,-0.0099,-0.0064,-0.0064,0,0,0,-0.0228,-0.0213,-0.0202,-0.0262,-0.0257,-0.0198,-0.0216,-0.0122,-0.0115,-0.0087,-0.0092,-0.0088,-0.0097,-0.0064,-0.0063,0.0043,0.0044,0,0,-0.0231,-0.0241,-0.0207,-0.0199,-0.0252,-0.0218,-0.0215,-0.0118,-0.0111,-0.0092,-0.0086,-0.0095,-0.0063,-0.0062,0.0043,0.0044,0,0,0,-0.026,-0.0243,-0.0235,-0.0203,-0.0207,-0.0217,-0.0213,-0.0115,-0.0114,-0.0085,-0.0093,-0.0062,-0.0061,0.0043,0.0043,0.0044,0,0,0,-0.0261,-0.0263,-0.0237,-0.024,-0.021,-0.0169,-0.0212,-0.012,-0.011,-0.0094,-0.0062,-0.006,0.0042,0.0043,0.0043,0.0037,0,0,0,-0.0263,-0.0263,-0.0261,-0.0241,-0.0232,-0.0171,-0.0164,-0.0118,-0.0117,-0.0064,-0.006,0.0042,0.0043,0.0042,0.0036,0.0051,0,0,0,-0.0268,-0.0278,-0.0261,-0.0264,-0.0233,-0.0193,-0.0164,-0.0124,-0.0081,-0.0062,0.0042,0.0043,0.0042,0.0035,0.005,0.0008,0.0008,0,0,-0.0288,-0.028,-0.0281,-0.0265,-0.0242,-0.0199,-0.0144,-0.0082,-0.0054,0.0018,0.002,0.0043,0.0036,0.0051,0.0064,0.0062,0,0,0,-0.0291,-0.0292,-0.0279,-0.0262,-0.0225,-0.0158,-0.0106,-0.0067,0.0007,-0.0031,0.0063,0.0059,0.0068,0.0041,0.0041,0.0048,0.0048,0.0048,0.0047,-0.0331,-0.0306,-0.0293,-0.025,-0.0208,-0.0125,-0.0062,0.0006,0.0021,0.0056,0.0074,0.0106,0.0078,0.0077,0.0095,0.0095,0.0095,0.0095,0.0095,-0.0362,-0.0354,-0.0295,-0.0275,-0.019,-0.0131,-0.001,0.0023,0.0103,0.0103,0.0113,0.0062,0.0076,0.0096,0.0095,0.0095,0.0095,0.0095,0.0095,-0.0395,-0.0385,-0.0365,-0.0313,-0.0235,-0.0138,-0.0077,0.0022,0.0096,0.0122,0.0092,0.0091,0.0094,0.0121,0.0121,0.0121,0.0121,0.0121,0.0121,-0.0441,-0.0416,-0.042,-0.035,-0.0325,-0.0255,-0.0118,-0.0065,0.0037,0.009,0.009,0.0115,0.0114,0.0097,0.0122,0.0122,0.0122,0.0122,0.0122,-0.0481,-0.0479,-0.0503,-0.0495,-0.0454,-0.0501,-0.0328,-0.0218,-0.0095,-0.006,0.0082,0.0083,0.0078,0.0078,0.0062,0.0076,0.0076,0.0076,0.0076,-0.0518,-0.0514,-0.0603,-0.0645,-0.0655,-0.0629,-0.0713,-0.0536,-0.0242,-0.0081,-0.0074,-0.0102,-0.0096,-0.0112,-0.0107,-0.0128,-0.0164,-0.0164,-0.0165,-0.0542,-0.0577,-0.0676,-0.074,-0.0776,-0.0835,-0.1001,-0.0857,-0.0375,-0.0178,-0.015,0.0067,0.0044,0.0046,0.0036,0.0038,0.001,0,0]}],[{"header":{"parameterUnit":"m.s-1","parameterCategory":2,"la1":30.2992,"la2":30.254,"lo1":-89.0895,"lo2":-89.0443,"dy":0.0025,"dx":0.0025,"nx":19,"ny":19,"refTime":"2026-04-07T03:00:00:Z","depth":"4","parameterNumber":2,"parameterNumberName":"U-component_of_CURRENTS"},"data":[0,0,0,0.0288,0.0287,0.0228,0.0228,0.0163,0.0163,0,0,0,0,0,0,0,0,0,0,0,0.0278,0.0277,0.0288,0.0287,0.0229,0.0228,0.0163,0.0163,0,0,0,0,0,0,0,0,0,0,0,0.0278,0.0277,0.0276,0.0287,0.0229,0.0228,0.0163,0.02,0,0,0,0,0,0,0,0,0,0,0.0253,0.0268,0.0277,0.0276,0.0287,0.0229,0.0228,0.0201,0.0198,0.02,0,0.018,0,0.0194,0.0161,0.0161,0,0,0,0.0265,0.0271,0.0247,0.0276,0.0287,0.0229,0.0249,0.0199,0.0195,0.0195,0.0179,0.0178,0.0192,0.0161,0.016,0.0075,0.0074,0,0,0.0268,0.0278,0.0249,0.0244,0.0258,0.0251,0.0247,0.0196,0.0192,0.0179,0.0177,0.0191,0.016,0.016,0.0075,0.0075,0,0,0,0.0293,0.028,0.0256,0.0246,0.0247,0.025,0.0245,0.0193,0.0182,0.0176,0.0191,0.016,0.016,0.0076,0.0075,0.0019,0,0,0,0.0294,0.0296,0.0257,0.0264,0.0248,0.0225,0.0244,0.0184,0.0181,0.0191,0.016,0.016,0.0077,0.0076,0.0022,-0.0029,0,0,0,0.0283,0.0296,0.0282,0.0264,0.0252,0.0226,0.0211,0.0183,0.0191,0.0161,0.016,0.0078,0.0076,0.0025,-0.0023,-0.0155,0,0,0,0.0304,0.0279,0.0282,0.025,0.0252,0.0191,0.0212,0.0165,0.0132,0.016,0.0077,0.0075,0.0026,-0.002,-0.015,-0.0182,0,0,0,0.0285,0.0277,0.0254,0.0257,0.0189,0.0198,0.0127,0.0098,0.011,0.0093,0.009,0.0021,-0.0023,-0.0154,-0.028,0,0,0,0,0.0257,0.0226,0.021,0.0169,0.0139,0.0082,0.0067,0.0068,0.0031,0.0089,0.0002,-0.0025,-0.0105,-0.0109,0.0067,0.0067,0.0067,0.0068,0.0068,0.0221,0.0189,0.0127,0.0071,0.0032,-0.0005,-0.0042,-0.0051,-0.0022,-0.0048,-0.0083,-0.024,-0.0243,-0.0083,-0.0083,-0.0083,-0.0083,-0.0084,-0.0084,0.0161,0.0114,0.005,-0.0027,-0.0088,-0.0151,-0.0166,-0.0154,-0.0226,-0.0149,-0.0225,-0.0181,-0.009,-0.0089,-0.0088,-0.0087,-0.0087,-0.0086,-0.0086,0.0137,0.0106,0.0038,-0.0088,-0.0188,-0.0236,-0.0336,-0.0321,-0.0316,-0.037,-0.0448,-0.0321,-0.0307,-0.0441,-0.0442,-0.0443,-0.0444,-0.0444,-0.0445,0.0146,0.0076,-0.0024,-0.0147,-0.0229,-0.0334,-0.0446,-0.0533,-0.0558,-0.0557,-0.0436,-0.0362,-0.035,-0.0331,-0.0457,-0.0455,-0.0453,-0.0452,-0.0451,0.011,0.0072,-0.0044,-0.0141,-0.0328,-0.0399,-0.0524,-0.074,-0.0864,-0.0918,-0.0667,-0.0653,-0.0659,-0.0641,-0.0631,-0.0851,-0.0852,-0.0853,0,0.0089,0.006,-0.008,-0.0202,-0.0358,-0.0437,-0.0668,-0.0813,-0.0852,-0.079,-0.0803,-0.0505,-0.0498,-0.0485,-0.0472,-0.0451,0,0,0,0.0038,0.0017,-0.0073,-0.0196,-0.0358,-0.058,-0.073,-0.0806,-0.0798,-0.1015,-0.0878,-0.0872,-0.0683,-0.0494,-0.0472,-0.0457,-0.0426,0,0]},{"header":{"parameterUnit":"m.s-1","parameterCategory":2,"la1":30.2992,"la2":30.254,"lo1":-89.0895,"lo2":-89.0443,"dy":0.0025,"dx":0.0025,"nx":19,"ny":19,"refTime":"2026-04-07T03:00:00:Z","depth":"4","parameterNumber":3,"parameterNumberName":"V-component_of_CURRENTS"},"data":[0,0,0,0.0211,0.0211,0.0246,0.0246,0.0327,0.0328,0,0,0,0,0,0,0,0,0,0,0,0.0182,0.0181,0.0211,0.0211,0.0246,0.0246,0.0327,0.0328,0,0,0,0,0,0,0,0,0,0,0,0.0182,0.0181,0.0181,0.0211,0.0245,0.0246,0.0327,0.0294,0,0,0,0,0,0,0,0,0,0,0.0256,0.0227,0.0181,0.0181,0.0212,0.0245,0.0246,0.0292,0.0296,0.032,0,0.0305,0,0.0324,0.0334,0.0334,0,0,0,0.0219,0.0223,0.0228,0.0181,0.0212,0.0245,0.0232,0.0294,0.0298,0.0326,0.0306,0.031,0.0325,0.0334,0.0335,0.0371,0.0371,0,0,0.0217,0.02,0.0225,0.023,0.0195,0.0231,0.0233,0.0296,0.0294,0.0307,0.0312,0.0327,0.0335,0.0335,0.0371,0.0371,0,0,0,0.0206,0.0198,0.0201,0.0227,0.0233,0.0232,0.0234,0.0291,0.0289,0.0313,0.0328,0.0335,0.0336,0.0371,0.0371,0.0342,0,0,0,0.0206,0.0192,0.0199,0.0192,0.023,0.026,0.0228,0.0285,0.0293,0.0327,0.0335,0.0337,0.0372,0.0371,0.0344,0.0314,0,0,0,0.0185,0.0191,0.0185,0.019,0.0204,0.0259,0.0262,0.0287,0.0302,0.0334,0.0337,0.0372,0.0371,0.0345,0.0317,0.0291,0,0,0,0.0181,0.0168,0.0184,0.0178,0.0203,0.0226,0.0261,0.029,0.0314,0.0336,0.0372,0.0371,0.0345,0.0319,0.0293,0.0175,0,0,0,0.0167,0.0165,0.0164,0.018,0.018,0.0223,0.0239,0.0285,0.0313,0.0356,0.0356,0.0343,0.0317,0.0292,0.0143,0,0,0,0,0.0162,0.0145,0.0152,0.0152,0.0184,0.02,0.025,0.0277,0.031,0.0324,0.034,0.0324,0.0309,0.0245,0.0368,0.0368,0.0368,0.0368,0.0368,0.0104,0.0121,0.0104,0.0117,0.0138,0.019,0.0212,0.0252,0.0294,0.0299,0.0299,0.0255,0.0186,0.0306,0.0306,0.0306,0.0305,0.0305,0.0305,0.0048,0.0031,0.0051,0.0039,0.0073,0.0096,0.017,0.0204,0.0235,0.0271,0.0258,0.0217,0.0302,0.0303,0.0303,0.0304,0.0304,0.0304,0.0304,-0.0007,-0.0014,-0.0023,-0.0039,-0.0026,0.0032,0.0035,0.0116,0.0185,0.0186,0.0116,0.0226,0.023,0.0182,0.0181,0.0181,0.0181,0.0181,0.0181,-0.006,-0.0068,-0.0119,-0.012,-0.0133,-0.0122,-0.0042,-0.0021,0.0069,0.0052,0.0169,0.0213,0.0217,0.0223,0.0177,0.0177,0.0178,0.0178,0.0179,-0.0132,-0.0143,-0.0219,-0.0255,-0.0299,-0.0291,-0.0206,-0.0157,-0.0149,-0.0132,-0.0016,-0.0005,-0.001,-0.0001,-0.0002,-0.0117,-0.0118,-0.012,0,-0.0188,-0.0197,-0.033,-0.0416,-0.0478,-0.041,-0.0432,-0.0369,-0.0249,-0.0267,-0.015,-0.0022,-0.0013,-0.002,-0.0014,-0.0018,0,0,0,-0.025,-0.0282,-0.0402,-0.0495,-0.0571,-0.0525,-0.0445,-0.044,-0.026,-0.0264,-0.0164,-0.0152,0.0026,0.0166,0.0183,0.0188,0.0198,0,0]}]]